Zurück zum Katalog

STARLINK-37524

AktivKommunikationSSO
NORAD 68842·PAYLOAD·🇺🇸 United States

Gestartet Apr 26, 2026 von Vandenberg Space Force Base

Loading…

Nächste Überflüge (nächste 24 Stunden)

TLE

AktuellSource: CelesTrak SupGP

Epoche: Sep 14, 2026, 23:32 UTC

1 68842C 26094D   26257.98104167  .00046754  00000+0  14513-2 0  2575
2 68842  97.2836 271.1356 0001809  90.0192  92.0686 15.33415244    13

Verfolge STARLINK-37524 in Echtzeit mit AllMySat

Download on the App Store